User: anonymous   Login
Location: Unspecified
(0.0000°N, 0.0000°E)
Time: 03:00:51
(UTC+00:00)
Language:

STARLINK-1152 - Orbit

View from above orbital plane
View from above orbital plane
View from above satellite
View from above satellite

Ground track
Ground track

The orbit is defined by the following mean orbital elements,

1 45096U          26145.41538071 +.00000000 +00000-0 +98823-3 0 00007
2 45096  53.0346 202.0496 0004070  23.7001 336.4192 15.47106540    05
Epoch (UTC): 25 May 2026 09:58:08
Eccentricity: 0.0004070
inclination: 53.0346°
perigee height: 422 km
apogee height: 428 km
right ascension of ascending node: 202.0496°
argument of perigee: 23.7001°
revolutions per day: 15.47106540
mean anomaly at epoch: 336.4192°

The dashed part of the orbit path shows where the satellite is in the earth's shadow,  

DLR